Content
SEND FEEDBACK

Daily
Averages
Monthly
Summary
United States of America

PILOT, VIRGINIA


Home > North America > United States > Virginia
Elevation: 220 feet     Latitude: 37 03N     Longitude: 080 22W

WEATHER
 
SELECT A DAY
Number of Records: 440,758;   Date Range: 1/1/95 - 7/20/14
 
SHARE

PRINT THIS DATA

[ ← Previous Day ]
WEATHER ALMANAC - JANUARY 3, 2013
[ Next Day → ]
[ °C ]   °F
Weather ElementAverageHighLow
Temperature33.7 °F39.2 °F (12:55 pm)30.2 °F (5:55 am)
Dewpoint25.4 °F28.4 °F (12:35 am)19.4 °F (11:55 am)
Humidity73.2 %93 % (5:55 am)45 % (12:55 pm)
Barometer30.17 in30.21 in (7:55 pm)30.13 in (2:15 am)
Wind Speed4.8 mph13.8 mph (10:15 pm)
Wind Gust21.9 mph (10:55 pm)
Weather ElementAverage
Visibility10 mi
Wind DirectionSSW (199.1 °)

Weather ElementTotal
Precipitation---
Heating Degree Days30.3 (Base 65)
Averaged from 69 records on January 3, 2013
WEATHER CONDITIONS BREAKOUT
WIND DIRECTION BREAKOUT
WEATHER BY HOUR - JANUARY 3, 2013
[ °C ]   °F
Local TimeTemperatureDewpointHumidityBarometerVisibilityWind DirectionWind SpeedGust SpeedPrecipitationEventsConditions
12:35 AM32.0 °F28.4 °F87 %30.14 in10.0 miCalmOvercast
12:55 AM32.0 °F28.4 °F87 %30.14 in10.0 miCalmOvercast
1:15 AM32.0 °F28.4 °F87 %30.14 in10.0 miCalmOvercast
1:35 AM32.0 °F28.4 °F87 %30.14 in10.0 miCalmOvercast
1:55 AM32.0 °F28.4 °F87 %30.14 in10.0 miCalmOvercast
2:15 AM32.0 °F28.4 °F87 %30.13 in10.0 miCalmOvercast
2:35 AM32.0 °F28.4 °F87 %30.13 in10.0 miCalmOvercast
2:55 AM32.0 °F28.4 °F87 %30.14 in10.0 miCalmOvercast
3:15 AM32.0 °F28.4 °F87 %30.14 in10.0 miCalmOvercast
3:35 AM32.0 °F28.4 °F87 %30.14 in10.0 miCalmOvercast
3:55 AM32.0 °F28.4 °F87 %30.14 in10.0 miCalmOvercast
4:15 AM32.0 °F28.4 °F87 %30.13 in10.0 miCalmOvercast
4:35 AM32.0 °F28.4 °F87 %30.13 in10.0 miCalmOvercast
4:55 AM32.0 °F28.4 °F87 %30.13 in10.0 miWest (270°)3.5 mphOvercast
5:15 AM32.0 °F28.4 °F87 %30.13 in10.0 miCalmOvercast
5:35 AM32.0 °F28.4 °F87 %30.14 in10.0 miCalmOvercast
5:55 AM30.2 °F28.4 °F93 %30.14 in10.0 miCalmOvercast
6:15 AM32.0 °F28.4 °F87 %30.15 in10.0 miCalmOvercast
6:35 AM32.0 °F28.4 °F87 %30.15 in10.0 miWNW (290°)3.5 mphOvercast
6:55 AM30.2 °F28.4 °F93 %30.16 in10.0 miWSW (250°)3.5 mphOvercast
7:15 AM30.2 °F26.6 °F86 %30.17 in10.0 miWest (270°)3.5 mphOvercast
7:35 AM30.2 °F28.4 °F93 %30.17 in10.0 miCalmOvercast
7:55 AM32.0 °F28.4 °F87 %30.17 in10.0 miCalmOvercast
8:15 AM32.0 °F28.4 °F87 %30.18 in10.0 miWest (280°)3.5 mphOvercast
8:35 AM30.2 °F28.4 °F93 %30.17 in10.0 miWest (270°)3.5 mphScattered Clouds
8:55 AM32.0 °F28.4 °F87 %30.17 in10.0 miWest (260°)3.5 mphScattered Clouds
9:15 AM32.0 °F26.6 °F80 %30.17 in10.0 miWSW (250°)3.5 mphMostly Cloudy
9:35 AM32.0 °F26.6 °F80 %30.17 in10.0 miWest (260°)5.8 mphOvercast
9:55 AM33.8 °F26.6 °F75 %30.18 in10.0 miWest (260°)6.9 mphScattered Clouds
10:35 AM33.8 °F23.0 °F65 %30.19 in10.0 miWest (280°)6.9 mphClear
10:55 AM35.6 °F24.8 °F65 %30.19 in10.0 miWest (280°)6.9 mphClear
11:15 AM35.6 °F21.2 °F56 %30.18 in10.0 miWest (280°)5.8 mphClear
11:35 AM35.6 °F21.2 °F56 %30.17 in10.0 miWest (280°)5.8 mphClear
11:55 AM35.6 °F19.4 °F52 %30.16 in10.0 miWest (280°)6.9 mphClear
12:15 PM35.6 °F19.4 °F52 %30.16 in10.0 miWest (270°)6.9 mphClear
12:35 PM37.4 °F21.2 °F52 %30.15 in10.0 miWNW (290°)4.6 mphClear
12:55 PM39.2 °F19.4 °F45 %30.14 in10.0 miWest (280°)6.9 mphClear
1:15 PM39.2 °F19.4 °F45 %30.13 in10.0 miWest (260°)9.2 mphClear
1:35 PM39.2 °F21.2 °F49 %30.13 in10.0 miWNW (290°)8.1 mphClear
1:55 PM39.2 °F23.0 °F52 %30.13 in10.0 miWNW (300°)6.9 mphClear
2:35 PM39.2 °F24.8 °F56 %30.13 in10.0 miWNW (300°)12.7 mph17.3 mphClear
2:55 PM37.4 °F23.0 °F56 %30.14 in10.0 miWNW (300°)9.2 mph16.1 mphClear
3:15 PM37.4 °F24.8 °F60 %30.15 in10.0 miWNW (300°)4.6 mphClear
3:35 PM37.4 °F24.8 °F60 %30.16 in10.0 miWest (280°)4.6 mphClear
3:55 PM37.4 °F23.0 °F56 %30.16 in10.0 miWNW (290°)6.9 mph16.1 mphClear
4:15 PM37.4 °F23.0 °F56 %30.16 in10.0 miWNW (290°)9.2 mphClear
4:35 PM37.4 °F23.0 °F56 %30.18 in10.0 miWNW (290°)10.4 mphClear
4:55 PM35.6 °F23.0 °F60 %30.18 in10.0 miWest (280°)6.9 mphClear
5:15 PM35.6 °F24.8 °F65 %30.18 in10.0 miWest (260°)3.5 mphClear
5:35 PM33.8 °F24.8 °F70 %30.18 in10.0 miWest (260°)3.5 mphClear
5:55 PM33.8 °F24.8 °F70 %30.19 in10.0 miWest (260°)3.5 mphClear
6:15 PM33.8 °F23.0 °F65 %30.19 in10.0 miWest (280°)5.8 mphClear
6:35 PM33.8 °F24.8 °F70 %30.20 in10.0 miWest (260°)3.5 mphClear
6:55 PM30.2 °F24.8 °F80 %30.20 in10.0 miCalmClear
7:15 PM30.2 °F24.8 °F80 %30.20 in10.0 miWest (280°)4.6 mphClear
7:35 PM30.2 °F24.8 °F80 %30.20 in10.0 miWest (280°)4.6 mphClear
7:55 PM33.8 °F24.8 °F70 %30.21 in10.0 miWest (280°)5.8 mphClear
8:15 PM33.8 °F23.0 °F65 %30.21 in10.0 miWest (280°)4.6 mphClear
8:35 PM33.8 °F23.0 °F65 %30.21 in10.0 miWest (280°)9.2 mphClear
8:55 PM33.8 °F23.0 °F65 %30.21 in10.0 miWNW (300°)8.1 mphClear
9:15 PM33.8 °F23.0 °F65 %30.21 in10.0 miWNW (300°)8.1 mph17.3 mphClear
9:35 PM33.8 °F24.8 °F70 %30.21 in10.0 miWNW (290°)10.4 mph17.3 mphClear
9:55 PM33.8 °F24.8 °F70 %30.21 in10.0 miWNW (300°)12.7 mph16.1 mphClear
10:15 PM33.8 °F24.8 °F70 %30.21 in10.0 miWNW (290°)13.8 mph18.4 mphClear
10:35 PM33.8 °F24.8 °F70 %30.21 in10.0 miWNW (300°)11.5 mph16.1 mphClear
10:55 PM33.8 °F26.6 °F75 %30.21 in10.0 miWNW (290°)9.2 mph21.9 mphClear
11:15 PM33.8 °F24.8 °F70 %30.21 in10.0 miWNW (290°)9.2 mph17.3 mphClear
11:35 PM33.8 °F24.8 °F70 %30.21 in10.0 miWNW (290°)10.4 mph18.4 mphClear
11:55 PM32.0 °F24.8 °F75 %30.21 in10.0 miWNW (290°)11.5 mph17.3 mphClear
Hourly data recorded from KBCB, located miles away from Pilot, Virginia







STORIES FROM OUR PARTNERS